Location: Unspecified
(0.0000°N, 0.0000°E)
Time: 21:46:25
(UTC+02:00)

SJ-6B - Visible Passes

Search period start: 29 April 2016 00:00
Search period end: 09 May 2016 00:00
Orbit: 512 x 587 km, 97.8° (Epoch: 29 April)

Date Brightness Start Highest point End Pass type
(mag) Time Alt. Az. Time Alt. Az. Time Alt. Az.
29 Apr 4.1 21:07:51 10° S 21:11:37 41° WSW 21:15:15 10° NNW visible
30 Apr 3.7 21:03:21 10° S 21:07:10 48° WSW 21:10:54 10° NNW visible
01 May 3.4 20:58:51 10° S 21:02:44 58° WSW 21:06:31 10° NNW visible
02 May 3.0 20:54:23 10° S 20:58:17 70° WSW 21:02:06 10° NNW visible
03 May 2.8 20:49:55 10° S 20:53:51 83° WSW 20:57:39 10° NNW visible
04 May 2.7 20:45:29 10° SSE 20:49:24 82° ENE 20:53:11 10° N visible
05 May 2.7 20:41:04 10° SSE 20:44:56 69° ENE 20:48:42 10° N visible
06 May 2.8 20:36:40 10° SSE 20:40:29 57° ENE 20:44:12 10° N visible
07 May 3.0 20:32:17 10° SSE 20:36:01 47° ENE 20:39:39 10° N visible
08 May 3.2 20:27:56 10° SSE 20:31:33 39° ENE 20:35:05 10° N visible
